Waupaca, WI

7:19 PM CST on November 19, 2019 (GMT -0600)
Waupaca Municipal

Weather History for KPCZ - September, 2019

Change the Weather History Date:

Saturday, September 7, 2019

  Actual Average Record
Temperature  
Mean Temperature 60 °F -  
Max Temperature 70 °F 77 °F 95 °F (1959)
Min Temperature 51 °F 53 °F 34 °F (1986)
Degree Days  
Heating Degree Days 4    
Growing Degree Days 10 (Base 50)    
Moisture  
Dew Point 53 °F    
Average Humidity 76    
Maximum Humidity 98    
Minimum Humidity 45    
Precipitation  
Precipitation 0.00 in - - ()
Sea Level Pressure  
Sea Level Pressure 30.05 in    
Wind  
Wind Speed 2 mph (NW)    
Max Wind Speed 10 mph    
Max Gust Speed -    
Visibility 10 miles    
Events      
Averages and records for this station are not official NWS values.
T = Trace of Precipitation, MM = Missing Value Source: NWS Daily Summary

Daily Weather History Graph

Daily Weather History Graph

Search for Another Location

Airport or City:

Astronomy

Sep. 07, 2019 Rise Set
Actual Time 6:25 AM CDT 7:21 PM CDT
Civil Twilight 5:56 AM CDT 7:51 PM CDT
Nautical Twilight 5:20 AM CDT 8:26 PM CDT
Astronomical Twilight 4:43 AM CDT 9:03 PM CDT
Moon 3:48 PM CDT (9/7) 12:07 AM CDT (9/7)
Length of Visible Light 13h 55m
Length of Day
12h 56m
Waxing Gibbous, 66% of the Moon is Illuminated
Sep 7
Waxing Gibbous
Sep 13
Full
Sep 21
Last Quarter
Sep 28
New
Oct 5
First Quarter

Hourly Weather History & Observations

Time (CDT) Temp. Dew Point Humidity Pressure Visibility Wind Dir Wind Speed Gust Speed Precip Events Conditions
12:15 AM 52.7 °F 51.3 °F 95% 30.05 in 7.0 mi Calm Calm - N/A   Clear
12:35 AM 52.3 °F 51.3 °F 96% 30.05 in 10.0 mi Calm Calm - N/A   Clear
12:55 AM 52.7 °F 51.8 °F 97% 30.05 in 10.0 mi Calm Calm - N/A   Clear
1:15 AM 52.2 °F 51.3 °F 97% 30.04 in 10.0 mi Calm Calm - N/A   Clear
1:35 AM 51.8 °F 50.9 °F 97% 30.04 in 10.0 mi Calm Calm - N/A   Clear
1:55 AM 52.0 °F 51.3 °F 97% 30.04 in 10.0 mi Calm Calm - N/A   Clear
2:15 AM 52.2 °F 51.4 °F 97% 30.04 in 10.0 mi Calm Calm - N/A   Clear
2:35 AM 52.0 °F 51.3 °F 97% 30.03 in 10.0 mi Calm Calm - N/A   Clear
2:55 AM 51.8 °F 51.1 °F 97% 30.03 in 10.0 mi Calm Calm - N/A   Scattered Clouds
3:15 AM 53.6 °F 52.7 °F 97% 30.03 in 10.0 mi Calm Calm - N/A   Mostly Cloudy
3:35 AM 54.0 °F 53.4 °F 98% 30.02 in 10.0 mi Calm Calm - N/A   Overcast
3:55 AM 55.4 °F 54.5 °F 97% 30.02 in 10.0 mi Calm Calm - N/A   Overcast
4:15 AM 55.9 °F 55.4 °F 98% 30.02 in 10.0 mi Calm Calm - N/A   Overcast
4:35 AM 56.7 °F 56.1 °F 98% 30.01 in 10.0 mi Calm Calm - N/A   Mostly Cloudy
4:55 AM 56.8 °F 56.3 °F 98% 30.01 in 10.0 mi Calm Calm - N/A   Mostly Cloudy
5:15 AM 56.7 °F 55.9 °F 97% 30.01 in 10.0 mi Calm Calm - N/A   Scattered Clouds
5:35 AM 55.4 °F 54.5 °F 97% 30.01 in 10.0 mi Calm Calm - N/A   Clear
5:55 AM 55.4 °F 54.5 °F 97% 30.02 in 10.0 mi Calm Calm - N/A   Scattered Clouds
6:15 AM 55.6 °F 54.7 °F 97% 30.02 in 10.0 mi Calm Calm - N/A   Overcast
6:35 AM 56.1 °F 55.2 °F 97% 30.02 in 10.0 mi Calm Calm - N/A   Overcast
6:55 AM 58.1 °F 57.2 °F 97% 30.02 in 10.0 mi West 3.5 mph - N/A   Mostly Cloudy
7:15 AM 58.1 °F 57.2 °F 97% 30.03 in 10.0 mi West 4.6 mph - N/A   Scattered Clouds
7:35 AM 59.2 °F 58.3 °F 97% 30.03 in 10.0 mi West 5.8 mph - N/A   Clear
7:55 AM 59.9 °F 58.5 °F 95% 30.03 in 10.0 mi WNW 4.6 mph - N/A   Clear
8:15 AM 60.4 °F 58.1 °F 92% 30.03 in 10.0 mi WNW 6.9 mph - N/A   Clear
8:35 AM 61.7 °F 58.3 °F 89% 30.03 in 10.0 mi NW 6.9 mph - N/A   Clear
8:55 AM 64.0 °F 57.4 °F 79% 30.03 in 10.0 mi NNW 5.8 mph - N/A   Clear
10:55 AM 69.1 °F 55.0 °F 61% 30.04 in 10.0 mi WNW 5.8 mph - N/A   Scattered Clouds
11:15 AM 70.3 °F 54.3 °F 57% 30.04 in 10.0 mi NNW 3.5 mph - N/A   Scattered Clouds
11:35 AM 70.2 °F 53.6 °F 56% 30.03 in 10.0 mi NW 10.4 mph - N/A   Scattered Clouds
11:55 AM 69.8 °F 51.8 °F 53% 30.03 in 10.0 mi NNW 9.2 mph - N/A   Scattered Clouds
12:15 PM 69.3 °F 51.3 °F 53% 30.04 in 10.0 mi NNW 5.8 mph - N/A   Scattered Clouds
12:35 PM 68.4 °F 50.7 °F 53% 30.04 in 10.0 mi NW 6.9 mph - N/A   Scattered Clouds
12:55 PM 68.4 °F 50.7 °F 53% 30.03 in 10.0 mi NNW 6.9 mph - N/A   Clear
1:15 PM 68.2 °F 50.5 °F 53% 30.04 in 10.0 mi NW 8.1 mph - N/A   Clear
1:35 PM 69.1 °F 50.7 °F 52% 30.04 in 10.0 mi NW 8.1 mph - N/A   Clear
1:55 PM 70.7 °F 50.2 °F 48% 30.05 in 10.0 mi NW 8.1 mph - N/A   Clear
2:15 PM 70.2 °F 49.1 °F 47% 30.05 in 10.0 mi WNW 8.1 mph - N/A   Clear
2:35 PM 70.0 °F 47.5 °F 45% 30.05 in 10.0 mi NW 9.2 mph - N/A   Clear
2:55 PM 69.3 °F 48.7 °F 48% 30.06 in 10.0 mi WNW 9.2 mph - N/A   Clear
3:15 PM 69.3 °F 49.5 °F 49% 30.06 in 10.0 mi NW 8.1 mph - N/A   Clear
3:35 PM 69.4 °F 50.0 °F 50% 30.06 in 10.0 mi NW 8.1 mph - N/A   Clear
3:55 PM 69.3 °F 49.8 °F 50% 30.06 in 10.0 mi WNW 5.8 mph - N/A   Clear
4:15 PM 69.3 °F 48.6 °F 48% 30.06 in 10.0 mi WNW 6.9 mph - N/A   Scattered Clouds
4:35 PM 68.4 °F 49.6 °F 51% 30.06 in 10.0 mi NW 6.9 mph - N/A   Scattered Clouds
4:55 PM 68.0 °F 49.5 °F 51% 30.06 in 10.0 mi NW 6.9 mph - N/A   Clear
5:15 PM 67.5 °F 49.6 °F 53% 30.06 in 10.0 mi WNW 3.5 mph - N/A   Clear
5:35 PM 67.5 °F 50.7 °F 55% 30.06 in 10.0 mi NW 6.9 mph - N/A   Clear
5:55 PM 67.5 °F 50.9 °F 55% 30.06 in 10.0 mi North 4.6 mph - N/A   Clear
6:15 PM 66.2 °F 49.5 °F 55% 30.06 in 10.0 mi North 4.6 mph - N/A   Clear
6:35 PM 64.8 °F 50.2 °F 59% 30.06 in 10.0 mi North 3.5 mph - N/A   Clear
6:55 PM 64.0 °F 50.4 °F 61% 30.06 in 10.0 mi North 3.5 mph - N/A   Clear
7:15 PM 63.1 °F 51.3 °F 65% 30.05 in 10.0 mi Calm Calm - N/A   Clear
7:35 PM 62.2 °F 51.8 °F 69% 30.05 in 10.0 mi Calm Calm - N/A   Clear
7:55 PM 62.1 °F 52.7 °F 71% 30.05 in 10.0 mi Calm Calm - N/A   Clear
8:15 PM 61.0 °F 52.5 °F 74% 30.06 in 10.0 mi Calm Calm - N/A   Clear
8:35 PM 59.9 °F 53.4 °F 79% 30.08 in 10.0 mi Calm Calm - N/A   Clear
8:55 PM 58.6 °F 54.3 °F 86% 30.08 in 10.0 mi Calm Calm - N/A   Clear
9:15 PM 58.1 °F 54.9 °F 89% 30.09 in 10.0 mi Calm Calm - N/A   Scattered Clouds
9:35 PM 57.9 °F 55.4 °F 91% 30.10 in 10.0 mi Calm Calm - N/A   Mostly Cloudy
9:55 PM 58.5 °F 55.8 °F 91% 30.10 in 10.0 mi NNW 3.5 mph - N/A   Overcast
10:15 PM 58.6 °F 55.4 °F 89% 30.11 in 10.0 mi Calm Calm - N/A   Overcast
10:35 PM 59.2 °F 52.7 °F 79% 30.11 in 10.0 mi NNE 5.8 mph - N/A   Scattered Clouds
10:55 PM 59.4 °F 52.0 °F 77% 30.12 in 10.0 mi Calm Calm - N/A   Mostly Cloudy
11:15 PM 59.0 °F 53.1 °F 81% 30.12 in 10.0 mi North 3.5 mph - N/A   Overcast
11:35 PM 58.5 °F 52.7 °F 81% 30.12 in 10.0 mi NNE 4.6 mph - N/A   Scattered Clouds
11:55 PM 58.5 °F 51.8 °F 79% 30.13 in 10.0 mi North 4.6 mph - N/A   Mostly Cloudy